TimeCST,TemperatureF,Dew PointF,Humidity,Sea Level PressureIn,VisibilityMPH,Wind Direction,Wind SpeedMPH,Gust SpeedMPH,PrecipitationIn,Events,Conditions,WindDirDegrees,DateUTC
12:15 AM,55.4,35.6,47,30.08,10.0,SSE,9.2,-,N/A,,Clear,150,2012-11-08 06:15:00
12:35 AM,55.4,35.6,47,30.08,10.0,SSE,10.4,-,N/A,,Clear,150,2012-11-08 06:35:00
12:55 AM,55.4,35.6,47,30.08,10.0,SSE,8.1,-,N/A,,Clear,160,2012-11-08 06:55:00
1:15 AM,55.4,35.6,47,30.07,10.0,SSE,9.2,-,N/A,,Clear,160,2012-11-08 07:15:00
1:35 AM,55.4,35.6,47,30.07,10.0,SSE,10.4,-,N/A,,Clear,160,2012-11-08 07:35:00
1:55 AM,55.4,35.6,47,30.07,10.0,SSE,10.4,-,N/A,,Clear,160,2012-11-08 07:55:00
2:15 AM,55.4,35.6,47,30.07,10.0,SSE,11.5,-,N/A,,Clear,160,2012-11-08 08:15:00
2:35 AM,55.4,35.6,47,30.06,10.0,SSE,10.4,-,N/A,,Clear,160,2012-11-08 08:35:00
2:55 AM,55.4,35.6,47,30.06,10.0,SSE,10.4,17.3,N/A,,Clear,160,2012-11-08 08:55:00
3:15 AM,55.4,35.6,47,30.06,10.0,SSE,11.5,-,N/A,,Clear,160,2012-11-08 09:15:00
3:35 AM,55.4,35.6,47,30.05,10.0,SSE,11.5,-,N/A,,Clear,160,2012-11-08 09:35:00
3:55 AM,55.4,37.4,51,30.05,10.0,SSE,11.5,-,N/A,,Clear,150,2012-11-08 09:55:00
4:15 AM,53.6,35.6,51,30.05,10.0,SSE,12.7,17.3,N/A,,Clear,150,2012-11-08 10:15:00
4:35 AM,53.6,35.6,51,30.05,10.0,SSE,11.5,-,N/A,,Clear,160,2012-11-08 10:35:00
4:55 AM,53.6,37.4,54,30.05,10.0,SSE,13.8,18.4,N/A,,Clear,160,2012-11-08 10:55:00
5:15 AM,53.6,37.4,54,30.05,10.0,SSE,12.7,17.3,N/A,,Clear,160,2012-11-08 11:15:00
5:35 AM,53.6,35.6,51,30.05,10.0,SSE,12.7,-,N/A,,Clear,160,2012-11-08 11:35:00
5:55 AM,53.6,35.6,51,30.05,10.0,SSE,12.7,-,N/A,,Clear,160,2012-11-08 11:55:00
6:15 AM,53.6,35.6,51,30.05,10.0,SSE,13.8,-,N/A,,Clear,160,2012-11-08 12:15:00
6:35 AM,53.6,35.6,51,30.05,10.0,South,16.1,20.7,N/A,,Clear,170,2012-11-08 12:35:00
6:55 AM,53.6,35.6,51,30.05,10.0,SSE,17.3,21.9,N/A,,Clear,160,2012-11-08 12:55:00
7:15 AM,53.6,35.6,51,30.05,10.0,SSE,16.1,23.0,N/A,,Clear,160,2012-11-08 13:15:00
7:35 AM,55.4,37.4,51,30.05,10.0,South,16.1,21.9,N/A,,Clear,170,2012-11-08 13:35:00
7:55 AM,55.4,37.4,51,30.06,10.0,SSE,16.1,23.0,N/A,,Clear,160,2012-11-08 13:55:00
8:15 AM,55.4,37.4,51,30.06,10.0,SSE,17.3,23.0,N/A,,Clear,160,2012-11-08 14:15:00
8:35 AM,57.2,37.4,48,30.06,10.0,SSE,13.8,23.0,N/A,,Clear,160,2012-11-08 14:35:00
8:55 AM,59.0,39.2,48,30.05,10.0,SSE,17.3,28.8,N/A,,Clear,160,2012-11-08 14:55:00
9:15 AM,60.8,41.0,48,30.04,10.0,SSE,20.7,25.3,N/A,,Clear,160,2012-11-08 15:15:00
9:35 AM,62.6,41.0,45,30.04,10.0,South,21.9,26.5,N/A,,Clear,170,2012-11-08 15:35:00
9:55 AM,62.6,42.8,48,30.03,10.0,SSE,20.7,28.8,N/A,,Clear,160,2012-11-08 15:55:00
10:15 AM,62.6,44.6,52,30.02,10.0,SSE,26.5,31.1,N/A,,Clear,160,2012-11-08 16:15:00
10:35 AM,66.2,46.4,49,30.02,10.0,South,21.9,32.2,N/A,,Clear,170,2012-11-08 16:35:00
10:55 AM,68.0,46.4,46,30.01,10.0,SSE,21.9,27.6,N/A,,Clear,160,2012-11-08 16:55:00
11:15 AM,71.6,50.0,46,30.00,10.0,South,19.6,26.5,N/A,,Clear,180,2012-11-08 17:15:00
11:35 AM,71.6,50.0,46,29.99,10.0,SSE,19.6,25.3,N/A,,Clear,160,2012-11-08 17:35:00
11:55 AM,73.4,50.0,44,29.98,10.0,South,15.0,28.8,N/A,,Clear,180,2012-11-08 17:55:00
12:15 PM,77.0,51.8,41,29.97,10.0,South,16.1,28.8,N/A,,Clear,190,2012-11-08 18:15:00
12:35 PM,77.0,51.8,41,29.96,10.0,SSE,16.1,24.2,N/A,,Clear,160,2012-11-08 18:35:00
12:55 PM,78.8,53.6,42,29.94,10.0,South,19.6,29.9,N/A,,Clear,180,2012-11-08 18:55:00
1:15 PM,78.8,53.6,42,29.93,10.0,South,19.6,32.2,N/A,,Clear,180,2012-11-08 19:15:00
1:35 PM,78.8,53.6,42,29.92,10.0,South,19.6,31.1,N/A,,Clear,170,2012-11-08 19:35:00
1:55 PM,78.8,53.6,42,29.91,10.0,South,20.7,26.5,N/A,,Clear,170,2012-11-08 19:55:00
2:15 PM,78.8,53.6,42,29.90,10.0,South,21.9,28.8,N/A,,Clear,170,2012-11-08 20:15:00
2:35 PM,78.8,55.4,44,29.90,10.0,South,21.9,29.9,N/A,,Clear,190,2012-11-08 20:35:00
2:55 PM,80.6,55.4,42,29.89,10.0,South,15.0,24.2,N/A,,Clear,190,2012-11-08 20:55:00
3:15 PM,80.6,55.4,42,29.89,10.0,South,13.8,26.5,N/A,,Clear,180,2012-11-08 21:15:00
3:35 PM,80.6,57.2,45,29.89,10.0,South,18.4,29.9,N/A,,Clear,180,2012-11-08 21:35:00
4:15 PM,78.8,55.4,44,29.90,10.0,South,18.4,26.5,N/A,,Clear,190,2012-11-08 22:15:00
4:35 PM,78.8,57.2,47,29.90,10.0,South,20.7,27.6,N/A,,Clear,180,2012-11-08 22:35:00
4:55 PM,77.0,57.2,50,29.90,10.0,South,16.1,24.2,N/A,,Clear,180,2012-11-08 22:55:00
5:15 PM,77.0,57.2,50,29.91,10.0,South,12.7,21.9,N/A,,Clear,170,2012-11-08 23:15:00
5:35 PM,77.0,59.0,54,29.90,10.0,South,15.0,21.9,N/A,,Clear,170,2012-11-08 23:35:00
5:55 PM,77.0,59.0,54,29.90,10.0,South,16.1,-,N/A,,Clear,170,2012-11-08 23:55:00
6:15 PM,75.2,59.0,57,29.90,10.0,South,16.1,23.0,N/A,,Clear,170,2012-11-09 00:15:00
6:35 PM,73.4,57.2,57,29.90,10.0,South,15.0,23.0,N/A,,Clear,170,2012-11-09 00:35:00
6:55 PM,73.4,59.0,61,29.91,10.0,SSE,17.3,23.0,N/A,,Clear,160,2012-11-09 00:55:00
7:15 PM,73.4,59.0,61,29.91,10.0,SSE,16.1,24.2,N/A,,Clear,160,2012-11-09 01:15:00
7:35 PM,71.6,59.0,64,29.91,10.0,SSE,17.3,20.7,N/A,,Clear,160,2012-11-09 01:35:00
7:55 PM,71.6,59.0,64,29.91,10.0,South,17.3,21.9,N/A,,Clear,170,2012-11-09 01:55:00
8:35 PM,71.6,59.0,64,29.92,10.0,South,19.6,23.0,N/A,,Clear,170,2012-11-09 02:35:00
8:55 PM,71.6,59.0,64,29.92,10.0,South,15.0,24.2,N/A,,Clear,170,2012-11-09 02:55:00
9:15 PM,71.6,59.0,64,29.92,10.0,South,19.6,23.0,N/A,,Clear,170,2012-11-09 03:15:00
9:35 PM,71.6,60.8,69,29.92,10.0,South,17.3,24.2,N/A,,Clear,170,2012-11-09 03:35:00
10:15 PM,71.6,60.8,69,29.92,10.0,South,17.3,25.3,N/A,,Clear,170,2012-11-09 04:15:00
10:35 PM,71.6,60.8,69,29.92,10.0,South,15.0,24.2,N/A,,Clear,170,2012-11-09 04:35:00
10:55 PM,71.6,60.8,69,29.92,10.0,South,15.0,24.2,N/A,,Clear,170,2012-11-09 04:55:00
11:15 PM,69.8,60.8,73,29.92,10.0,South,15.0,21.9,N/A,,Clear,170,2012-11-09 05:15:00
11:35 PM,68.0,59.0,73,29.93,10.0,South,17.3,26.5,N/A,,Clear,170,2012-11-09 05:35:00
11:55 PM,68.0,59.0,73,29.93,10.0,South,17.3,24.2,N/A,,Clear,170,2012-11-09 05:55:00